• In Czech Republic
  • List of Countries
  • For 7 days
  • Water Temperature
  • Satellite Maps
  • Weather Map
  • Weather Widgets
  • user-avatar
    Login

    Hourly Weather Goiania

    Today, 24 February, Saturday

    Time Temperature Precipitation Wind Pressure Humidity
    00:00 +20°C° 1.9 mm 0 mps 698 mmHg 96%
    01:00 +20°C° 1.7 mm 0 mps 697 mmHg 96%
    02:00 +20°C° 1.7 mm 0 mps 697 mmHg 96%
    03:00 +20°C° 1.7 mm 0 mps 697 mmHg 96%
    04:00 +20°C° 1.7 mm 0 mps 697 mmHg 97%
    05:00 +20°C° 1.7 mm 0 mps 697 mmHg 97%
    06:00 +20°C° 1.7 mm 0 mps 697 mmHg 97%
    07:00 +20°C° 1.4 mm 0 mps 698 mmHg 96%
    08:00 +21°C° 1.4 mm 0 mps 698 mmHg 96%
    09:00 +21°C° 1.4 mm 0 mps 699 mmHg 96%
    10:00 +22°C° 0.7 mm 0 mps 698 mmHg 94%
    11:00 +24°C° 0.7 mm 1 mps 698 mmHg 92%
    12:00 +25°C° 0.7 mm 1 mps 698 mmHg 90%
    13:00 +26°C° 0.2 mm 1 mps 698 mmHg 87%
    14:00 +24°C° 0.2 mm 0 mps 698 mmHg 84%
    15:00 +25°C° 0.2 mm 0 mps 697 mmHg 81%
    16:00 +25°C° 0 mm 0 mps 697 mmHg 83%
    17:00 +24°C° 0 mm 0 mps 697 mmHg 85%
    18:00 +24°C° 0 mm 0 mps 696 mmHg 87%
    19:00 +25°C° 0.1 mm 1 mps 697 mmHg 90%
    20:00 +24°C° 0.1 mm 1 mps 697 mmHg 92%
    21:00 +23°C° 0.1 mm 1 mps 697 mmHg 95%
    22:00 +23°C° 0.1 mm 1 mps 698 mmHg 95%
    23:00 +22°C° 0.1 mm 1 mps 698 mmHg 95%

    Tomorrow, 25 February, Sunday

    Time Temperature Precipitation Wind Pressure Humidity
    00:00 +22°C° 0.1 mm 1 mps 698 mmHg 95%
    01:00 +22°C° 0 mm 1 mps 698 mmHg 95%
    02:00 +21°C° 0 mm 1 mps 697 mmHg 95%
    03:00 +21°C° 0 mm 1 mps 697 mmHg 94%
    04:00 +21°C° 0 mm 1 mps 697 mmHg 94%
    05:00 +21°C° 0 mm 1 mps 697 mmHg 93%
    06:00 +20°C° 0 mm 1 mps 697 mmHg 93%
    07:00 +22°C° 0 mm 1 mps 698 mmHg 89%
    08:00 +24°C° 0 mm 1 mps 698 mmHg 85%
    09:00 +25°C° 0 mm 2 mps 699 mmHg 81%
    10:00 +27°C° 0.1 mm 2 mps 699 mmHg 77%
    11:00 +28°C° 0.1 mm 2 mps 699 mmHg 72%
    12:00 +30°C° 0.1 mm 2 mps 699 mmHg 67%
    13:00 +30°C° 0.3 mm 2 mps 698 mmHg 68%
    14:00 +30°C° 0.3 mm 2 mps 698 mmHg 68%
    15:00 +30°C° 0.3 mm 2 mps 697 mmHg 69%
    16:00 +29°C° 0.8 mm 2 mps 697 mmHg 75%
    17:00 +28°C° 0.8 mm 1 mps 696 mmHg 80%
    18:00 +27°C° 0.8 mm 1 mps 696 mmHg 86%
    19:00 +26°C° 0 mm 1 mps 696 mmHg 88%
    20:00 +25°C° 0 mm 1 mps 697 mmHg 90%
    21:00 +22°C° 0 mm 0 mps 697 mmHg 91%
    22:00 +22°C° 0.4 mm 0 mps 697 mmHg 92%
    23:00 +21°C° 0.4 mm 0 mps 697 mmHg 92%

    Day after tomorrow, 26 February, Monday

    Time Temperature Precipitation Wind Pressure Humidity
    00:00 +21°C° 0.4 mm 0 mps 698 mmHg 93%
    01:00 +23°C° 0.9 mm 1 mps 697 mmHg 94%
    02:00 +22°C° 0.9 mm 1 mps 697 mmHg 94%
    03:00 +22°C° 0.9 mm 1 mps 696 mmHg 95%
    04:00 +22°C° 0.2 mm 1 mps 697 mmHg 95%
    05:00 +22°C° 0.2 mm 1 mps 697 mmHg 95%
    06:00 +22°C° 0.2 mm 1 mps 697 mmHg 95%
    07:00 +23°C° 0.1 mm 1 mps 698 mmHg 92%
    08:00 +25°C° 0.1 mm 1 mps 698 mmHg 89%
    09:00 +26°C° 0.1 mm 2 mps 699 mmHg 87%
    10:00 +27°C° 0.8 mm 2 mps 699 mmHg 82%
    11:00 +28°C° 0.8 mm 2 mps 699 mmHg 77%
    12:00 +29°C° 0.8 mm 2 mps 699 mmHg 72%
    13:00 +29°C° 0.8 mm 2 mps 698 mmHg 73%
    14:00 +29°C° 0.8 mm 2 mps 697 mmHg 75%
    15:00 +29°C° 0.8 mm 2 mps 696 mmHg 76%
    16:00 +28°C° 1.3 mm 2 mps 696 mmHg 81%
    17:00 +27°C° 1.3 mm 2 mps 696 mmHg 87%
    18:00 +25°C° 1.3 mm 2 mps 696 mmHg 92%
    19:00 +25°C° 0.6 mm 1 mps 696 mmHg 93%
    20:00 +24°C° 0.6 mm 1 mps 697 mmHg 94%
    21:00 +24°C° 0.6 mm 1 mps 697 mmHg 94%
    22:00 +23°C° 0.7 mm 1 mps 697 mmHg 94%
    23:00 +23°C° 0.7 mm 1 mps 697 mmHg 94%

    27 February, Tuesday

    Time Temperature Precipitation Wind Pressure Humidity
    00:00 +23°C° 0.7 mm 1 mps 698 mmHg 94%
    01:00 +23°C° 0.6 mm 1 mps 697 mmHg 94%
    02:00 +22°C° 0.6 mm 1 mps 697 mmHg 94%
    03:00 +22°C° 0.6 mm 1 mps 697 mmHg 94%
    04:00 +22°C° 0.1 mm 1 mps 697 mmHg 94%
    05:00 +20°C° 0.1 mm 0 mps 697 mmHg 94%
    06:00 +20°C° 0.1 mm 0 mps 697 mmHg 94%
    07:00 +21°C° 0.1 mm 0 mps 697 mmHg 91%
    08:00 +22°C° 0.1 mm 0 mps 698 mmHg 89%
    09:00 +26°C° 0.1 mm 1 mps 699 mmHg 86%
    10:00 +27°C° 0.3 mm 1 mps 699 mmHg 81%
    11:00 +28°C° 0.3 mm 1 mps 699 mmHg 77%
    12:00 +29°C° 0.3 mm 1 mps 699 mmHg 72%
    13:00 +29°C° 0.8 mm 1 mps 698 mmHg 73%
    14:00 +29°C° 0.8 mm 1 mps 697 mmHg 74%
    15:00 +29°C° 0.8 mm 1 mps 696 mmHg 75%
    16:00 +28°C° 0.5 mm 1 mps 696 mmHg 79%
    17:00 +28°C° 0.5 mm 1 mps 696 mmHg 83%
    18:00 +25°C° 0.5 mm 0 mps 696 mmHg 86%
    19:00 +24°C° 2.4 mm 0 mps 697 mmHg 88%
    20:00 +23°C° 2.4 mm 0 mps 697 mmHg 91%
    21:00 +22°C° 2.4 mm 0 mps 697 mmHg 93%
    22:00 +23°C° 0.9 mm 1 mps 697 mmHg 93%
    23:00 +23°C° 0.9 mm 1 mps 698 mmHg 93%

    28 February, Wednesday

    Time Temperature Precipitation Wind Pressure Humidity
    00:00 +23°C° 0.9 mm 1 mps 698 mmHg 93%
    01:00 +23°C° 0.4 mm 1 mps 697 mmHg 94%
    02:00 +22°C° 0.4 mm 1 mps 697 mmHg 94%
    03:00 +22°C° 0.4 mm 1 mps 697 mmHg 94%
    04:00 +22°C° 0 mm 1 mps 697 mmHg 95%
    05:00 +22°C° 0 mm 1 mps 697 mmHg 95%
    06:00 +21°C° 0 mm 1 mps 697 mmHg 95%
    07:00 +23°C° 0 mm 2 mps 698 mmHg 92%
    08:00 +24°C° 0 mm 2 mps 698 mmHg 89%
    09:00 +26°C° 0 mm 2 mps 699 mmHg 86%
    10:00 +27°C° 0 mm 2 mps 699 mmHg 80%
    11:00 +29°C° 0 mm 3 mps 699 mmHg 73%
    12:00 +30°C° 0 mm 3 mps 699 mmHg 67%
    13:00 +30°C° 0.4 mm 3 mps 698 mmHg 67%
    14:00 +30°C° 0.4 mm 2 mps 697 mmHg 67%
    15:00 +30°C° 0.4 mm 2 mps 696 mmHg 67%
    16:00 +29°C° 0.9 mm 2 mps 696 mmHg 73%
    17:00 +28°C° 0.9 mm 1 mps 696 mmHg 79%
    18:00 +27°C° 0.9 mm 1 mps 696 mmHg 85%
    19:00 +26°C° 0.7 mm 1 mps 696 mmHg 87%
    20:00 +25°C° 0.7 mm 1 mps 697 mmHg 89%
    21:00 +24°C° 0.7 mm 1 mps 697 mmHg 90%
    22:00 +24°C° 0.7 mm 1 mps 697 mmHg 91%
    23:00 +23°C° 0.7 mm 1 mps 698 mmHg 91%

    1 March, Thursday

    Time Temperature Precipitation Wind Pressure Humidity
    00:00 +23°C° 0.7 mm 1 mps 698 mmHg 92%
    01:00 +23°C° 1.6 mm 1 mps 698 mmHg 92%
    02:00 +23°C° 1.6 mm 1 mps 698 mmHg 93%
    03:00 +22°C° 1.6 mm 1 mps 697 mmHg 94%
    04:00 +22°C° 0.5 mm 1 mps 698 mmHg 94%
    05:00 +22°C° 0.5 mm 1 mps 698 mmHg 94%
    06:00 +22°C° 0.5 mm 1 mps 698 mmHg 95%
    07:00 +23°C° 0 mm 2 mps 699 mmHg 91%
    08:00 +25°C° 0 mm 2 mps 699 mmHg 88%
    09:00 +26°C° 0 mm 2 mps 700 mmHg 85%
    10:00 +28°C° 0 mm 2 mps 700 mmHg 78%
    11:00 +29°C° 0 mm 2 mps 700 mmHg 71%
    12:00 +30°C° 0 mm 3 mps 700 mmHg 64%
    13:00 +31°C° 0 mm 2 mps 699 mmHg 62%
    14:00 +31°C° 0 mm 2 mps 698 mmHg 60%
    15:00 +31°C° 0 mm 1 mps 698 mmHg 58%
    16:00 +31°C° 0 mm 1 mps 697 mmHg 62%
    17:00 +30°C° 0 mm 1 mps 697 mmHg 67%
    18:00 +27°C° 0 mm 0 mps 697 mmHg 72%
    19:00 +27°C° 0 mm 1 mps 697 mmHg 73%
    20:00 +26°C° 0 mm 1 mps 697 mmHg 75%
    21:00 +24°C° 0 mm 1 mps 698 mmHg 77%
    22:00 +24°C° 0 mm 1 mps 698 mmHg 79%
    23:00 +23°C° 0 mm 1 mps 698 mmHg 81%
    Show more